Weather History for Ithaca, NY

Change the Weather History Date:

Wednesday, January 15, 2014

  Actual Average Record
Temperature  
Mean Temperature 34 °F -  
Max Temperature 41 °F 30 °F 66 °F (1932)
Min Temperature 26 °F 15 °F -25 °F (1957)
Degree Days  
Heating Degree Days 30    
Moisture  
Dew Point 28 °F    
Average Humidity 83    
Maximum Humidity 93    
Minimum Humidity 65    
Precipitation  
Precipitation 0.00 in - - ()
Sea Level Pressure  
Sea Level Pressure 29.88 in    
Wind  
Wind Speed 9 mph (West)    
Max Wind Speed 15 mph    
Max Gust Speed -    
Visibility 7 miles    
Events Snow    
Averages and records for this station are not official NWS values.
T = Trace of Precipitation, MM = Missing Value Source: NWS Daily Summary

Daily Weather History Graph

Daily Weather History Graph

Search for Another Location

Airport:

Trip Planner

Search our weather history database for the weather conditions in past years. The results will help you decide how hot, cold, wet, or windy it might be!

Date:

Astronomy

Jan. 15, 2014 Rise Set
Actual Time 7:32 AM EST 4:58 PM EST
Civil Twilight 7:01 AM EST 5:29 PM EST
Nautical Twilight 6:26 AM EST 6:04 PM EST
Astronomical Twilight 5:53 AM EST 6:37 PM EST
Moon 4:55 PM EST (1/15) 6:46 AM EST (1/15)
Length of Visible Light 10h 27m
Length of Day
9h 25m
Full, 100% of the Moon is Illuminated
Jan 15
Full
Jan 15
Full
Jan 24
Last Quarter
Jan 30
New
Feb 6
First Quarter

Hourly Weather History & Observations

Time (EST) Temp. Windchill Dew Point Humidity Pressure Visibility Wind Dir Wind Speed Gust Speed Precip Events Conditions
5:15 AM 33.8 °F 27.0 °F 28.4 °F 81% 29.81 in 7.0 mi South 8.1 mph - N/A   Mostly Cloudy
5:56 AM 33.8 °F 25.3 °F 30.2 °F 87% 29.81 in 7.0 mi South 11.5 mph - N/A   Overcast
6:30 AM 33.8 °F 26.4 °F 30.2 °F 87% 29.82 in 10.0 mi South 9.2 mph - N/A   Overcast
6:56 AM 33.8 °F 25.3 °F 30.2 °F 87% 29.82 in 7.0 mi South 11.5 mph - N/A   Overcast
7:56 AM 33.8 °F 27.7 °F 30.2 °F 87% 29.85 in 4.0 mi South 6.9 mph - N/A Snow Light Snow Showers
8:56 AM 33.8 °F 27.7 °F 32.0 °F 93% 29.87 in 10.0 mi SSE 6.9 mph - N/A   Mostly Cloudy
9:56 AM 37.4 °F 30.8 °F 32.0 °F 81% 29.88 in 10.0 mi SSW 9.2 mph - N/A   Mostly Cloudy
10:56 AM - - - N/A% 29.88 in 10.0 mi South 10.4 mph - N/A   Mostly Cloudy
11:56 AM 41.0 °F 34.7 °F 33.8 °F 76% 29.85 in 10.0 mi SSW 10.4 mph - N/A   Mostly Cloudy
12:56 PM 41.0 °F 33.1 °F 32.0 °F 70% 29.83 in 10.0 mi SSW 15.0 mph - N/A   Mostly Cloudy
1:56 PM 41.0 °F 35.2 °F 30.2 °F 65% 29.82 in 10.0 mi WSW 9.2 mph - N/A   Mostly Cloudy
3:35 PM 33.8 °F 28.6 °F 30.2 °F 87% 29.87 in 5.0 mi North 5.8 mph - N/A Snow Light Snow
3:56 PM 33.8 °F 28.6 °F 30.2 °F 87% 29.87 in 5.0 mi NE 5.8 mph - N/A Snow Light Snow
4:56 PM 33.8 °F 30.8 °F 30.2 °F 87% 29.88 in 5.0 mi North 3.5 mph - N/A   Overcast
5:56 PM 32.0 °F 27.5 °F 28.4 °F 87% 29.90 in 6.0 mi North 4.6 mph - N/A   Mostly Cloudy
6:56 PM 32.0 °F 26.4 °F 28.4 °F 87% 29.91 in 7.0 mi NW 5.8 mph - N/A   Overcast
7:56 PM 30.2 °F 21.3 °F 24.8 °F 80% 29.93 in 4.0 mi North 10.4 mph - N/A Snow Light Snow
8:20 PM 28.4 °F 19.7 °F 24.8 °F 86% 29.93 in 3.0 mi NNW 9.2 mph - N/A Snow Light Snow
8:56 PM 28.4 °F 21.2 °F 24.8 °F 86% 29.94 in 6.0 mi NNW 6.9 mph - N/A Snow Light Snow
9:56 PM 28.4 °F 22.2 °F 21.2 °F 74% 29.95 in 10.0 mi NNW 5.8 mph - N/A Snow Light Snow
10:16 PM 28.4 °F 23.3 °F 23.0 °F 80% 29.95 in 2.5 mi North 4.6 mph - N/A Snow Light Snow
10:56 PM 26.6 °F 19.1 °F 23.0 °F 86% 29.94 in 3.0 mi North 6.9 mph - N/A Snow Light Snow